GOMX4-A (43197 NORAD) Tracking and Keplerian Element Data

This shows tracking and keplerian element data for the satellite.

Feedback or suggestion? Click here.




ElementValue
Catalog43197
NameGOMX4-A
Epoch Orbit4424
Epoch Day323.86605477
Epoch Year2018
RAAN89.8171
Inclination97.3665
Eccentricity0.0018651
Argument of Perigee335.4698
Mean Anonmoly141.19
Mean Motion15.23827074
Decay Rate2.99E-06
L11 43197U 18015F 18323.86605477 .00000299 00000-0 15324-4 0 9998
L22 43197 97.3665 89.8171 0018651 335.4698 141.1900 15.23827074 44244

Live tracking and technical data element details for GOMX4-A (NORAD 43197). GOMX4-A can be tracked NOW for your location showing map with azimuth and elevation plus other details from your city location.

Track the satellite on the map from your city or location and see movement details for azimuth, elevation, latitude, longitude, range, height, and movement on the map or in text.







IsCatalogInMostPopularTable: catalog: 43197, numindb: 124
Update: records affected: 1



GetName: 43197 GOMX4-A

Hit Count: updated at: Wed, 21 Nov 2018 05:50:40 GMT